Regional Weather Roundup
Issued by NWS Mobile, AL

Home | Current Version | Previous Version | Text Only | Print | Product List | Glossary On
Versions: 1 2 3 4 5 6 7 8 9 10 11 12 13 14 15 16 17 18 19 20 21 22 23 24 25 26 27 28 29 30 31 32 33 34 35 36 37 38 39 40 41 42 43 44 45 46 47 48 49 50
000
ASUS44 KMOB 290510
RWRMOB
REGIONAL WEATHER ROUNDUP
NATIONAL WEATHER SERVICE MOBILE AL
1200 AM CDT TUE JUL 29 2014

NOTE: "FAIR" INDICATES FEW OR NO CLOUDS BELOW 12,000 FEET WITH NO
      SIGNIFICANT WEATHER AND/OR OBSTRUCTIONS TO VISIBILITY.

  * THESE STATIONS ARE PART OF THE UNIVERSITY OF SOUTH ALABAMA
    MESONET AND ARE NOT UNDER NWS OR FAA QUALITY CONTROL.

ALZ061>064-290600-
COASTAL ALABAMA

CITY           SKY/WX    TMP DP  RH WIND       PRES   REMARKS
MOBILE REG APT PTCLDY    80  74  81 NW6       30.01S
BROOKLEY FIELD MOCLDY    80  77  90 NW9       30.00F
USA CAMPUS*      N/A     79  75  89 CALM      29.99S
DOG RIVER*       N/A     81  77  89 CALM      30.00R


CITY           SKY/WX    TMP DP  RH WIND       PRES   REMARKS
MOUNT VERNON*    N/A     73  72  94 CALM      30.00R
SARALAND*      NOT AVBL
BAY MINETTE*   NOT AVBL
LOXLEY*          N/A     75  72  88 CALM      29.99R
ROBERTSDALE*     N/A    N/A N/A N/A CALM      29.99R
FAIRHOPE*        N/A     75  73  94 CALM      29.98S
ELBERTA*         N/A     81  68  65 N3        29.98S
FOLEY*         NOT AVBL
GRAND BAY*       N/A     79  75  89 CALM      29.98R
DAUPHIN ISLND* NOT AVBL
BON SCOUR NWR* NOT AVBL
GULF SHORES      N/A     77  76  95 CALM      29.98R

$$

ALZ051>060-290600-
INTERIOR SOUTHWEST AND SOUTH CENTRAL ALABAMA

CITY           SKY/WX    TMP DP  RH WIND       PRES   REMARKS
GREENVILLE     CLEAR     76  65  68 N5        29.99S
EVERGREEN      CLEAR     75  72  90 CALM      29.99S
CASTLEBERRY*   NOT AVBL
ATMORE*          N/A     73  73 100 NW2       30.01R
DIXIE*         NOT AVBL
ANDALUSIA/OPP  CLEAR     78  72  81 NW3       29.98S
ANDALUSIA*     NOT AVBL
FLORALA APT    CLEAR     75  71  87 CALM      29.99S
FLORALA*         N/A     73  72  94 CALM      29.95S

$$

FLZ001>006-290600-
WESTERN FLORIDA PANHANDLE

CITY           SKY/WX    TMP DP  RH WIND       PRES   REMARKS
PENSACOLA      MOCLDY    77  74  90 NW3       29.97S
NAS PENSACOLA  LGT RAIN  78  77  96 CALM      29.97S
MILTON         PTCLDY    75  71  87 NW5       29.98R
WHTNG S FIELD  MOCLDY    77  73  87 NW7       29.98S


CITY           SKY/WX    TMP DP  RH WIND       PRES   REMARKS
WALNUT HILL*   NOT AVBL
JAY*           NOT AVBL
DUKE FIELD     PTCLDY    76  75  98 NW6       29.98R
CRESTVIEW      CLEAR     76  73  91 W6        29.99S
VALPARAISO     MOCLDY    79  75  87 NW3       29.96S
DESTIN         PTCLDY    83  77  82 VRB3      29.96S

$$

MSZ076-079-290600-
INTERIOR SOUTHEAST MISSISSIPPI

CITY           SKY/WX    TMP DP  RH WIND       PRES   REMARKS
LEAKESVILLE*   NOT AVBL
AGRICOLA*      NOT AVBL

$$

MARINE OBSERVATIONS

STATION/POSITION TIME  TEMP    WIND        PRES    WAVE
                       AIR SEA DIR/SP/G            HT/PER
                 (UTC) (F)     (DEG/KT/KT) (MB)    (FT/S)
PASCAGOULA       0500   84     320/  8/  9 1015.2S
PETIT BOIS ISLND 0500   86     320/ 13/ 16 1015.6F
GRAND BAY        0300   85     310/  3     1016.0S
KATRINA CUT      0400   85     330/  6     1015.9F
CEDAR POINT      0400   84     310/  6     1015.2F
E DAUPHIN ISLAND 0400   83     280/  5/  5 1015.2F
MIDDLE BAY LIGHT 0400   85     290/  8     1015.2S
USCG MOBILE BAY  0500   82 85  350/  4/  8 1014.5S
STATE DOCKS      0500   82 86              1015.3S
MEAHER PARK      0400   80     140/  1     1015.6R
WEEKS BAY        0300   79                   N/A
12 S ORANGE BCH  0500   83 84  340/ 10/ 12 1015.1R   2/ 5
PENSACOLA BAY    0500   80 87  290/  3/  4 1015.1S
64 S DAUPHIN ISL 0433   85 86  260/ 17/ 19 1015.7F
67 S FORT MORGAN 0400   84                   N/A

$$

SELECTED LOCATIONS ACROSS THE REGION

CITY           SKY/WX    TMP DP  RH WIND       PRES   REMARKS
NEW ORLEANS    MOCLDY    83  77  82 NW3       30.01F
GULFPORT       PTCLDY    84  76  76 W5        29.99S
PASCAGOULA AP  PTCLDY    81  75  82 NW6       29.99S
PASCAGOULA*      N/A     84  77  79 VRB5      29.98F
HATTIESBURG    CLEAR     79  68  69 N7        30.02F
LAUREL         CLEAR     75  64  69 N7        30.04F
MERIDIAN       CLEAR     70  65  84 NW3       30.03F
JACKSON        CLEAR     73  66  78 N3        30.05S
MONTGOMERY     CLEAR     77  63  61 NW3       29.99R
TROY           CLEAR     75  67  76 NW6       29.99R
KINSTON*       NOT AVBL
GENEVA*          N/A     73  70  88 W5        29.98S
ASHFORD*       NOT AVBL
DOTHAN         CLEAR     75  72  90 NW8       29.99S
PANAMA CITY    MOCLDY    78  73  84 CALM      29.95S

$$



USA.gov is the U.S. government's official web portal to all federal, state and local government web resources and services.